Location: Guayaquil
(2.1667°S, 79.9000°W)
Time: 18:37:15
(UTC-05:00)

Hubble Space Telescope - Visible Passes

Search period start: 15 February 2019 00:00
Search period end: 25 February 2019 00:00
Orbit: 537 x 540 km, 28.5° (Epoch: 15 February)

Date Brightness Start Highest point End Pass type
(mag) Time Alt. Az. Time Alt. Az. Time Alt. Az.
19 Feb 3.1 20:31:17 10° NW 20:32:18 17° NW 20:32:18 17° NW visible
20 Feb 2.0 20:20:44 10° WNW 20:23:13 35° NW 20:23:13 35° NW visible
21 Feb 0.9 20:10:17 10° WNW 20:14:10 69° WSW 20:14:10 69° WSW visible
22 Feb 1.5 19:59:56 10° WNW 20:03:56 49° SSW 20:05:08 36° SSE visible
23 Feb 2.2 19:49:43 10° W 19:53:30 34° SSW 19:56:04 17° SSE visible
24 Feb 3.5 04:25:10 13° SSE 04:25:14 13° SSE 04:27:18 10° SE visible
24 Feb 1.0 06:02:24 10° SW 06:06:32 75° SSE 06:10:39 10° ENE visible
24 Feb 2.8 19:39:37 10° W 19:43:04 25° SSW 19:46:31 10° SSE visible
